Simultaneous Nadir Overpasses (SNOs) Predictions

Prediction of SNOs between GOES-17 and NOAA-20 Satellite Orbit:

Table of predicted SNOs for the next 14.0 days since TLE Epoch: 2/5/2022
Index Date Time (GOES-17) GOES-17 Lat,Lon NOAA-20 Lat,Lon Distance(km) Time Diff (sec)
1 02/05/2022 10:51:42 -0.04,-137.20 0.85,-141.24 460.25 80
2 02/06/2022 10:30:18 -0.04,-137.19 -0.16,-136.71 55.64 80
3 02/08/2022 22:33:33 0.03,-137.19 -0.03,-137.49 34.28 80
4 02/09/2022 22:17:30 0.03,-137.18 0.98,-132.96 481.09 80
5 02/11/2022 10:39:19 -0.02,-137.17 0.21,-138.23 121.29 80
6 02/12/2022 10:17:55 -0.01,-137.15 -0.80,-133.70 393.84 80
7 02/13/2022 22:39:53 -0.01,-137.13 -0.45,-139.00 212.74 80
8 02/14/2022 22:23:49 -0.01,-137.12 0.56,-134.47 301.74 80
9 02/16/2022 10:45:39 0.01,-137.10 0.63,-139.74 301.88 80
10 02/17/2022 10:24:15 0.01,-137.08 -0.39,-135.21 212.31 80
11 02/18/2022 22:46:13 -0.00,-137.05 -0.79,-140.52 395.73 80
